Weather History for Elmendorf AFB, AK

Change the Weather History Date:

Saturday, March 2, 2013

  Actual Average Record
Temperature  
Mean Temperature 24 °F -  
Max Temperature 33 °F 27 °F 49 °F (1958)
Min Temperature 15 °F 12 °F -20 °F (1956)
Degree Days  
Heating Degree Days 41    
Moisture  
Dew Point 23 °F    
Average Humidity 96    
Maximum Humidity 100    
Minimum Humidity 68    
Precipitation  
Precipitation 0.00 in - - ()
Sea Level Pressure  
Sea Level Pressure 30.00 in    
Wind  
Wind Speed 2 mph (ENE)    
Max Wind Speed 10 mph    
Max Gust Speed -    
Visibility 4 miles    
Events Fog , Snow    
Averages and records for this station are not official NWS values.
T = Trace of Precipitation, MM = Missing Value Source: NWS Daily Summary

Daily Weather History Graph

Daily Weather History Graph

Search for Another Location

Airport:

Trip Planner

Search our weather history database for the weather conditions in past years. The results will help you decide how hot, cold, wet, or windy it might be!

Date:

Astronomy

Mar. 02, 2013 Rise Set
Actual Time 7:55 AM AKST 6:28 PM AKST
Civil Twilight 7:12 AM AKST 7:11 PM AKST
Nautical Twilight 6:22 AM AKST 8:01 PM AKST
Astronomical Twilight 5:31 AM AKST 8:53 PM AKST
Moon 12:47 AM AKST (3/2) 8:49 AM AKST (3/2)
Length of Visible Light 11h 59m
Length of Day
10h 32m
Waning Gibbous, 72% of the Moon is Illuminated
Mar 2
Waning Gibbous
Mar 4
Last Quarter
Mar 11
New
Mar 19
First Quarter
Mar 27
Full

Hourly Weather History & Observations

Time (AKST) Temp. Windchill Dew Point Humidity Pressure Visibility Wind Dir Wind Speed Gust Speed Precip Events Conditions
12:00 AM 17.6 °F - 15.8 °F 93% 29.94 in 0.2 mi Calm Calm - N/A Fog Light Freezing Fog
12:01 AM 17.6 °F - 15.8 °F 93% 29.94 in 0.2 mi Calm Calm - N/A Fog Light Freezing Fog
12:07 AM 17.6 °F - 15.8 °F 93% 29.94 in 0.2 mi Calm Calm - N/A Fog , Snow Light Freezing Fog
12:17 AM 19.4 °F - 17.6 °F 93% 29.94 in 0.2 mi Calm Calm - N/A Fog Light Freezing Fog
12:33 AM 17.6 °F - 15.8 °F 93% 29.95 in 0.5 mi Calm Calm - N/A Fog Light Freezing Fog
12:47 AM 15.8 °F - 14.0 °F 93% 29.95 in 0.2 mi Calm Calm - N/A Fog Light Freezing Fog
12:53 AM 15.8 °F - 14.0 °F 93% 29.95 in 0.5 mi Calm Calm - N/A Fog Light Freezing Fog
12:55 AM 15.8 °F - 13.6 °F 91% 29.96 in 0.5 mi Calm Calm - 0.00 in Fog Light Freezing Fog
12:56 AM 15.8 °F - 14.0 °F 93% 29.96 in 0.5 mi Calm Calm - N/A Fog Light Freezing Fog
12:57 AM 15.8 °F - 14.0 °F 93% 29.96 in 0.5 mi Calm Calm - N/A Fog Light Freezing Fog
12:58 AM 15.8 °F - 14.0 °F 93% 29.96 in 0.5 mi Calm Calm - N/A Fog Light Freezing Fog
12:59 AM 15.8 °F - 14.0 °F 93% 29.96 in 0.5 mi Calm Calm - N/A Fog Light Freezing Fog
1:03 AM 15.8 °F - 14.0 °F 93% 29.96 in 0.8 mi Calm Calm - N/A   Mist
1:08 AM 17.6 °F - 15.8 °F 93% 29.96 in 1.0 mi Calm Calm - N/A   Mostly Cloudy
1:17 AM 17.6 °F - 17.6 °F 100% 29.96 in 0.8 mi Calm Calm - N/A   Mostly Cloudy
1:21 AM 19.4 °F - 19.4 °F 100% 29.96 in 0.5 mi Calm Calm - N/A Fog Light Freezing Fog
1:23 AM 21.2 °F - 19.4 °F 93% 29.96 in 0.5 mi Calm Calm - N/A Fog Light Freezing Drizzle
1:25 AM 21.2 °F - 21.2 °F 100% 29.96 in 0.2 mi Calm Calm - N/A Fog Light Freezing Drizzle
1:26 AM 21.2 °F - 21.2 °F 100% 29.96 in 0.2 mi Calm Calm - N/A Fog Light Freezing Drizzle
1:27 AM 21.2 °F - 21.2 °F 100% 29.96 in 0.2 mi Calm Calm - N/A Fog Light Freezing Drizzle
1:55 AM 21.9 °F - 21.4 °F 98% 29.97 in 0.2 mi Calm Calm - N/A Fog Light Freezing Fog
2:03 AM 23.0 °F - 23.0 °F 100% 29.97 in 0.2 mi Calm Calm - N/A Fog Light Freezing Fog
2:04 AM 23.0 °F - 23.0 °F 100% 29.97 in 0.2 mi Calm Calm - N/A Fog Light Freezing Fog
2:10 AM 23.0 °F 15.8 °F 23.0 °F 100% 29.97 in 0.2 mi East 5.8 mph - N/A Fog Light Freezing Fog
2:26 AM 23.0 °F 17.0 °F 23.0 °F 100% 29.98 in 0.5 mi East 4.6 mph - N/A Fog Light Freezing Fog
2:27 AM 23.0 °F 17.0 °F 23.0 °F 100% 29.98 in 0.5 mi East 4.6 mph - N/A Fog Light Freezing Fog
2:29 AM 23.0 °F 15.8 °F 23.0 °F 100% 29.97 in 0.5 mi East 5.8 mph - N/A Fog Light Freezing Fog
2:31 AM 23.0 °F 15.8 °F 23.0 °F 100% 29.97 in 0.5 mi East 5.8 mph - N/A Fog Light Freezing Fog
2:32 AM 23.0 °F 15.8 °F 23.0 °F 100% 29.98 in 0.8 mi East 5.8 mph - N/A   Overcast
2:33 AM 23.0 °F 15.8 °F 23.0 °F 100% 29.97 in 0.8 mi East 5.8 mph - N/A   Overcast
2:34 AM 23.0 °F 15.8 °F 23.0 °F 100% 29.98 in 1.0 mi East 5.8 mph - N/A   Overcast
2:35 AM 23.0 °F 15.8 °F 23.0 °F 100% 29.98 in 1.2 mi East 5.8 mph - N/A   Overcast
2:36 AM 23.0 °F 15.8 °F 23.0 °F 100% 29.98 in 1.5 mi East 5.8 mph - N/A   Overcast
2:37 AM 23.0 °F 15.8 °F 23.0 °F 100% 29.98 in 1.8 mi East 5.8 mph - N/A   Overcast
2:38 AM 23.0 °F 15.8 °F 23.0 °F 100% 29.98 in 2.5 mi East 5.8 mph - N/A   Overcast
2:39 AM 23.0 °F 15.8 °F 23.0 °F 100% 29.98 in 3.0 mi East 5.8 mph - N/A   Overcast
2:41 AM 23.0 °F 15.8 °F 23.0 °F 100% 29.98 in 5.0 mi East 5.8 mph - N/A   Overcast
2:48 AM 23.0 °F 17.0 °F 23.0 °F 100% 29.98 in 7.0 mi East 4.6 mph - N/A   Overcast
2:51 AM 23.0 °F 17.0 °F 23.0 °F 100% 29.98 in 7.0 mi East 4.6 mph - N/A   Overcast
2:55 AM 24.3 °F - 23.9 °F 99% 29.98 in 8.0 mi Calm Calm - 0.00 in   Overcast
2:56 AM 24.8 °F - 24.8 °F 100% 29.98 in 8.0 mi Calm Calm - N/A   Overcast
3:55 AM 22.3 °F - 21.2 °F 96% 29.99 in 8.0 mi Calm Calm - N/A   Overcast
3:58 AM 21.2 °F - 21.2 °F 100% 29.99 in 8.0 mi Calm Calm - N/A   Overcast
4:00 AM 21.2 °F - 21.2 °F 100% 29.99 in 9.0 mi Calm Calm - N/A   Overcast
4:12 AM 21.2 °F - 19.4 °F 93% 29.99 in 10.0 mi Calm Calm - N/A   Overcast
4:17 AM 21.2 °F - 21.2 °F 100% 29.99 in 10.0 mi Calm Calm - N/A   Overcast
4:21 AM 23.0 °F - 23.0 °F 100% 29.99 in 10.0 mi Calm Calm - N/A   Overcast
4:24 AM 23.0 °F - 23.0 °F 100% 29.99 in 10.0 mi Calm Calm - N/A   Overcast
4:52 AM 23.0 °F - 21.2 °F 93% 29.99 in 10.0 mi Calm Calm - N/A   Overcast
4:55 AM 22.5 °F - 21.7 °F 97% 29.99 in 10.0 mi Calm Calm - N/A   Mostly Cloudy
5:03 AM 21.2 °F 16.4 °F 21.2 °F 100% 29.99 in 10.0 mi East 3.5 mph - N/A   Mostly Cloudy
5:08 AM 21.2 °F 14.9 °F 19.4 °F 93% 29.99 in 10.0 mi East 4.6 mph - N/A   Mostly Cloudy
5:09 AM 21.2 °F 14.9 °F 19.4 °F 93% 29.99 in 10.0 mi East 4.6 mph - N/A   Mostly Cloudy
5:55 AM 21.2 °F 14.9 °F 20.3 °F 96% 29.97 in 10.0 mi East 4.6 mph - N/A   Mostly Cloudy
6:03 AM 23.0 °F - 23.0 °F 100% 29.97 in 10.0 mi Calm Calm - N/A   Scattered Clouds
6:39 AM 17.6 °F - 15.8 °F 93% 29.97 in 10.0 mi Calm Calm - N/A   Partly Cloudy
6:51 AM 19.4 °F - 17.6 °F 93% 29.98 in 10.0 mi Calm Calm - N/A   Mostly Cloudy
6:55 AM 18.7 °F - 17.1 °F 93% 29.98 in 10.0 mi Calm Calm - N/A   Mostly Cloudy
7:04 AM 21.2 °F - 19.4 °F 93% 29.99 in 10.0 mi Calm Calm - N/A   Mostly Cloudy
7:55 AM 21.9 °F 15.7 °F 20.8 °F 96% 30.00 in 10.0 mi ESE 4.6 mph - N/A   Overcast
8:04 AM 21.2 °F 14.9 °F 21.2 °F 100% 30.00 in 2.5 mi East 4.6 mph - N/A   Overcast
8:06 AM 21.2 °F 16.4 °F 21.2 °F 100% 30.00 in 2.5 mi East 3.5 mph - N/A   Overcast
8:11 AM 21.2 °F 16.4 °F 21.2 °F 100% 30.00 in 3.0 mi East 3.5 mph - N/A   Overcast
8:13 AM 21.2 °F 16.4 °F 21.2 °F 100% 30.00 in 5.0 mi East 3.5 mph - N/A   Overcast
8:55 AM 25.2 °F 18.3 °F 24.8 °F 99% 30.00 in 7.0 mi East 5.8 mph - N/A   Overcast
9:25 AM 23.0 °F - 23.0 °F 100% 30.01 in 10.0 mi Calm Calm - N/A   Mostly Cloudy
9:27 AM 24.8 °F - 23.0 °F 93% 30.01 in 10.0 mi Calm Calm - N/A   Scattered Clouds
9:37 AM 24.8 °F - 23.0 °F 93% 30.01 in 1.8 mi Calm Calm - N/A   Partly Cloudy
9:38 AM 24.8 °F - 23.0 °F 93% 30.01 in 1.2 mi Calm Calm - N/A   Partly Cloudy
9:39 AM 24.8 °F - 23.0 °F 93% 30.01 in 1.0 mi Calm Calm - N/A   Mist
9:40 AM 24.8 °F - 23.0 °F 93% 30.01 in 0.8 mi Calm Calm - N/A   Mist
9:41 AM 23.0 °F - 23.0 °F 100% 30.01 in 0.5 mi Calm Calm - N/A Fog Light Freezing Fog
9:43 AM 23.0 °F - 21.2 °F 93% 30.01 in 0.5 mi Calm Calm - N/A Fog Light Freezing Fog
9:44 AM 23.0 °F - 21.2 °F 93% 30.01 in 0.2 mi Calm Calm - N/A Fog Light Freezing Fog
9:45 AM 23.0 °F - 21.2 °F 93% 30.01 in 0.2 mi Calm Calm - N/A Fog Light Freezing Fog
9:46 AM 23.0 °F - 21.2 °F 93% 30.01 in 0.2 mi Calm Calm - N/A Fog Light Freezing Fog
9:49 AM 23.0 °F - 21.2 °F 93% 30.01 in 0.2 mi Calm Calm - N/A Fog Light Freezing Fog
9:50 AM 23.0 °F - 21.2 °F 93% 30.01 in 0.2 mi Calm Calm - N/A Fog Light Freezing Fog
9:55 AM 22.5 °F - 21.6 °F 96% 30.02 in 0.2 mi Calm Calm - N/A Fog Light Freezing Fog
10:17 AM 24.8 °F - 24.8 °F 100% 30.02 in 0.2 mi Calm Calm - N/A Fog Light Freezing Fog
10:25 AM 24.8 °F - 24.8 °F 100% 30.02 in 0.2 mi Calm Calm - N/A Fog Light Freezing Fog
10:26 AM 24.8 °F - 24.8 °F 100% 30.02 in 0.2 mi Calm Calm - N/A Fog Light Freezing Fog
10:28 AM 26.6 °F - 24.8 °F 93% 30.02 in 0.2 mi Calm Calm - N/A Fog Light Freezing Fog
10:29 AM 26.6 °F - 26.6 °F 100% 30.02 in 0.2 mi Calm Calm - N/A Fog Light Freezing Fog
10:30 AM 26.6 °F - 26.6 °F 100% 30.02 in 0.5 mi Calm Calm - N/A Fog Light Freezing Fog
10:33 AM 26.6 °F - 26.6 °F 100% 30.02 in 0.8 mi Calm Calm - N/A   Mist
10:34 AM 26.6 °F - 26.6 °F 100% 30.02 in 1.0 mi Calm Calm - N/A   Mist
10:35 AM 26.6 °F - 26.6 °F 100% 30.02 in 1.2 mi Calm Calm - N/A   Mostly Cloudy
10:36 AM 26.6 °F - 26.6 °F 100% 30.02 in 1.5 mi Calm Calm - N/A   Mostly Cloudy
10:37 AM 26.6 °F - 26.6 °F 100% 30.02 in 1.8 mi Calm Calm - N/A   Mostly Cloudy
10:38 AM 26.6 °F - 26.6 °F 100% 30.02 in 2.0 mi Calm Calm - N/A   Mostly Cloudy
10:39 AM 26.6 °F - 26.6 °F 100% 30.02 in 2.0 mi Calm Calm - N/A   Scattered Clouds
10:41 AM 26.6 °F - 26.6 °F 100% 30.02 in 1.8 mi Calm Calm - N/A   Scattered Clouds
10:42 AM 26.6 °F - 26.6 °F 100% 30.02 in 1.2 mi Calm Calm - N/A   Scattered Clouds
10:43 AM 26.6 °F - 26.6 °F 100% 30.02 in 1.0 mi Calm Calm - N/A   Mist
10:46 AM 28.4 °F - 26.6 °F 93% 30.02 in 1.2 mi Calm Calm - N/A   Scattered Clouds
10:51 AM 28.4 °F - 28.4 °F 100% 30.02 in 1.8 mi Calm Calm - N/A   Scattered Clouds
10:52 AM 28.4 °F - 26.6 °F 93% 30.02 in 4.0 mi Calm Calm - N/A   Partly Cloudy
10:55 AM 27.5 °F - 26.6 °F 96% 30.02 in 9.0 mi Calm Calm - N/A   Partly Cloudy
11:02 AM 28.4 °F - 26.6 °F 93% 30.02 in 10.0 mi Calm Calm - N/A   Partly Cloudy
11:14 AM 28.4 °F - 28.4 °F 100% 30.02 in 10.0 mi Calm Calm - N/A   Mostly Cloudy
11:19 AM 28.4 °F - 28.4 °F 100% 30.03 in 10.0 mi Calm Calm - N/A   Mostly Cloudy
11:32 AM 28.4 °F 23.3 °F 28.4 °F 100% 30.03 in 10.0 mi NNE 4.6 mph - N/A   Mostly Cloudy
11:35 AM 28.4 °F 22.2 °F 28.4 °F 100% 30.03 in 8.0 mi NNE 5.8 mph - N/A   Overcast
11:43 AM 28.4 °F 22.2 °F 28.4 °F 100% 30.03 in 2.5 mi NE 5.8 mph - N/A   Overcast
11:45 AM 28.4 °F 21.2 °F 28.4 °F 100% 30.03 in 1.5 mi NNE 6.9 mph - N/A   Overcast
11:46 AM 28.4 °F 21.2 °F 28.4 °F 100% 30.03 in 1.2 mi Variable 6.9 mph - N/A   Overcast
11:47 AM 28.4 °F 21.2 °F 28.4 °F 100% 30.03 in 1.0 mi Variable 6.9 mph - N/A   Overcast
11:48 AM 28.4 °F 20.4 °F 28.4 °F 100% 30.03 in 0.8 mi NE 8.1 mph - N/A   Overcast
11:50 AM 28.4 °F 20.4 °F 26.6 °F 93% 30.03 in 0.5 mi NE 8.1 mph - N/A Fog Light Freezing Fog
11:53 AM 28.4 °F 20.4 °F 26.6 °F 93% 30.03 in 0.5 mi NE 8.1 mph - N/A Fog Light Freezing Fog
11:54 AM 26.6 °F 19.1 °F 26.6 °F 100% 30.03 in 0.5 mi NE 6.9 mph - N/A Fog Light Freezing Fog
11:55 AM 27.3 °F 19.9 °F 26.8 °F 98% 30.03 in 0.2 mi NE 6.9 mph - N/A Fog Light Freezing Fog
11:56 AM 26.6 °F 19.1 °F 26.6 °F 100% 30.03 in 0.2 mi NE 6.9 mph - N/A Fog Light Freezing Fog
11:57 AM 26.6 °F 18.2 °F 26.6 °F 100% 30.03 in 0.2 mi NE 8.1 mph - N/A Fog Light Freezing Fog
12:01 PM 26.6 °F 16.8 °F 26.6 °F 100% 30.03 in 0.2 mi NE 10.4 mph - N/A Fog Light Freezing Fog
12:05 PM 26.6 °F 19.1 °F 26.6 °F 100% 30.03 in 0.2 mi NE 6.9 mph - N/A Fog Light Freezing Fog
12:06 PM 26.6 °F 19.1 °F 26.6 °F 100% 30.03 in 0.2 mi NE 6.9 mph - N/A Fog Light Freezing Fog
12:07 PM 26.6 °F 19.1 °F 26.6 °F 100% 30.03 in 0.2 mi NE 6.9 mph - N/A Fog Light Freezing Fog
12:10 PM 26.6 °F 19.1 °F 26.6 °F 100% 30.03 in 0.5 mi NNE 6.9 mph - N/A Fog Light Freezing Fog
12:14 PM 26.6 °F 17.5 °F 26.6 °F 100% 30.03 in 0.5 mi NNE 9.2 mph - N/A Fog Light Freezing Fog
12:15 PM 26.6 °F 18.2 °F 26.6 °F 100% 30.03 in 0.5 mi NNE 8.1 mph - N/A Fog Light Freezing Fog
12:16 PM 26.6 °F 17.5 °F 26.6 °F 100% 30.03 in 0.5 mi NE 9.2 mph - N/A Fog Light Freezing Fog
12:17 PM 26.6 °F 17.5 °F 26.6 °F 100% 30.02 in 0.8 mi NE 9.2 mph - N/A   Mist
12:20 PM 26.6 °F 17.5 °F 26.6 °F 100% 30.02 in 1.0 mi NE 9.2 mph - N/A   Mist
12:22 PM 26.6 °F 17.5 °F 26.6 °F 100% 30.02 in 1.2 mi NE 9.2 mph - N/A   Mostly Cloudy
12:23 PM 26.6 °F 16.8 °F 26.6 °F 100% 30.02 in 1.8 mi NE 10.4 mph - N/A   Mostly Cloudy
12:24 PM 26.6 °F 16.8 °F 26.6 °F 100% 30.03 in 2.5 mi NE 10.4 mph - N/A   Mostly Cloudy
12:25 PM 26.6 °F 17.5 °F 26.6 °F 100% 30.03 in 3.0 mi NE 9.2 mph - N/A   Mostly Cloudy
12:26 PM 26.6 °F 18.2 °F 26.6 °F 100% 30.03 in 4.0 mi NE 8.1 mph - N/A   Scattered Clouds
12:55 PM 27.3 °F 22.0 °F 26.4 °F 96% 30.03 in 10.0 mi NNE 4.6 mph - N/A   Clear
1:55 PM 28.6 °F 19.3 °F 23.7 °F 82% 30.04 in 10.0 mi NNE 10.4 mph - N/A   Clear
2:55 PM 31.1 °F 24.5 °F 23.5 °F 74% 30.02 in 10.0 mi NE 6.9 mph - N/A   Clear
3:55 PM 32.5 °F 26.2 °F 24.8 °F 73% 30.01 in 10.0 mi NE 6.9 mph - N/A   Clear
4:55 PM 33.1 °F 27.7 °F 23.7 °F 68% 30.01 in 10.0 mi ENE 5.8 mph - N/A   Clear
5:55 PM 31.8 °F 26.2 °F 22.8 °F 69% 30.01 in 10.0 mi NE 5.8 mph - N/A   Clear
6:55 PM 30.9 °F 22.8 °F 24.1 °F 76% 30.02 in 10.0 mi ENE 9.2 mph - N/A   Clear
7:55 PM 28.9 °F 23.9 °F 23.0 °F 78% 30.04 in 10.0 mi ENE 4.6 mph - N/A   Clear
8:55 PM 22.5 °F - 20.1 °F 91% 30.07 in 10.0 mi Calm Calm - N/A   Clear
9:55 PM 16.7 °F 9.6 °F 14.2 °F 90% 30.08 in 10.0 mi East 4.6 mph - N/A   Scattered Clouds
10:55 PM 25.9 °F 21.7 °F 24.8 °F 96% 30.08 in 10.0 mi East 3.5 mph - N/A   Clear
11:25 PM 24.8 °F - 23.0 °F 93% 30.09 in 10.0 mi Calm Calm - N/A   Partly Cloudy
11:55 PM 21.4 °F 16.6 °F 20.8 °F 98% 30.09 in 10.0 mi East 3.5 mph - N/A   Mostly Cloudy